N6OIL Weather Reports


Display with metric or nautical units.
time (UTC)temp
F
wind
direction
speed
MPH
gust
MPH
rain 1hr
in
rain 24hr
in
rain mn
in
humidity
%
barometer
mb
20260504021205 58 325 18.0 29.0 0.00 0.00 0.00 55 1009.8
20260504020704 59 322 18.0 29.0 0.00 0.00 0.00 56 1009.7
20260504020204 59 292 16.0 29.0 0.00 0.00 0.00 54 1009.8
20260504015704 59 329 17.0 29.0 0.00 0.00 0.00 54 1009.7
20260504014704 60 310 16.0 25.0 0.00 0.00 0.00 53 1009.7
20260504013204 60 342 18.0 30.0 0.00 0.00 0.00 53 1010.0
20260504012704 60 358 18.0 30.0 0.00 0.00 0.00 53 1009.8
20260504012204 61 337 17.0 28.0 0.00 0.00 0.00 51 1009.9
20260504011704 61 303 18.0 28.0 0.00 0.00 0.00 51 1009.9
20260504011204 62 345 16.0 27.0 0.00 0.00 0.00 50 1009.9
20260504010704 62 319 16.0 29.0 0.00 0.00 0.00 48 1009.8
20260504010204 62 333 18.0 29.0 0.00 0.00 0.00 48 1009.7
20260504005704 62 328 18.0 29.0 0.00 0.00 0.00 49 1009.9
20260504005204 62 302 19.0 29.0 0.00 0.00 0.00 50 1009.8
20260504004204 62 344 18.0 25.0 0.00 0.00 0.00 49 1009.7
20260504003704 63 297 18.0 30.0 0.00 0.00 0.00 49 1009.9
20260504003204 63 319 18.0 32.0 0.00 0.00 0.00 50 1009.7
20260504002704 63 304 20.0 32.0 0.00 0.00 0.00 50 1009.7
20260504002204 63 298 21.0 32.0 0.00 0.00 0.00 48 1009.4
20260504001705 63 316 21.0 31.0 0.00 0.00 0.00 47 1009.5
20260504001204 64 320 20.0 31.0 0.00 0.00 0.00 46 1009.7
20260504000704 64 315 20.0 27.0 0.00 0.00 0.00 45 1009.7
20260504000204 64 332 19.0 32.0 0.00 0.00 0.00 44 1009.3
20260503235704 64 308 20.0 32.0 0.00 0.00 0.00 46 1009.4
20260503235204 64 293 21.0 32.0 0.00 0.00 0.00 49 1009.4
20260503234704 64 306 20.0 32.0 0.00 0.00 0.00 49 1009.5
20260503233704 64 322 20.0 28.0 0.00 0.00 0.00 49 1009.7
20260503233204 64 333 20.0 30.0 0.00 0.00 0.00 50 1009.5
20260503232704 64 302 20.0 30.0 0.00 0.00 0.00 50 1009.7
20260503232204 64 304 20.0 30.0 0.00 0.00 0.00 49 1009.5
20260503231706 65 312 20.0 30.0 0.00 0.00 0.00 49 1009.5
20260503231204 65 319 21.0 30.0 0.00 0.00 0.00 49 1009.5
20260503230704 65 313 21.0 30.0 0.00 0.00 0.00 49 1009.5
20260503230204 65 311 19.0 29.0 0.00 0.00 0.00 49 1009.7
20260503225705 66 310 18.0 29.0 0.00 0.00 0.00 48 1009.7
20260503225204 65 272 19.0 29.0 0.00 0.00 0.00 48 1010.0
20260503224704 66 287 18.0 29.0 0.00 0.00 0.00 48 1009.9
20260503224204 66 289 18.0 29.0 0.00 0.00 0.00 48 1010.1
20260503223704 67 322 18.0 27.0 0.00 0.00 0.00 47 1009.8
20260503223204 67 297 18.0 27.0 0.00 0.00 0.00 48 1010.1
20260503222704 67 296 18.0 29.0 0.00 0.00 0.00 47 1010.1
20260503222205 67 286 19.0 29.0 0.00 0.00 0.00 48 1010.0
20260503221704 67 261 18.0 28.0 0.00 0.00 0.00 48 1010.3
20260503220705 67 282 18.0 26.0 0.00 0.00 0.00 47 1010.4
20260503220204 67 296 19.0 26.0 0.00 0.00 0.00 47 1010.4
20260503215204 68 285 19.0 26.0 0.00 0.00 0.00 45 1010.4
20260503214204 69 303 16.0 24.0 0.00 0.00 0.00 44 1010.7
20260503213705 68 323 17.0 24.0 0.00 0.00 0.00 45 1010.7
20260503213204 68 286 17.0 24.0 0.00 0.00 0.00 45 1010.8
20260503212704 68 279 17.0 24.0 0.00 0.00 0.00 45 1011.0
20260503212204 69 304 17.0 27.0 0.00 0.00 0.00 43 1011.0
20260503211704 69 358 18.0 27.0 0.00 0.00 0.00 43 1010.9
20260503211204 70 286 18.0 27.0 0.00 0.00 0.00 40 1010.8
20260503210705 70 358 17.0 25.0 0.00 0.00 0.00 41 1010.5
20260503210204 69 358 17.0 23.0 0.00 0.00 0.00 41 1010.9
20260503205704 69 283 17.0 25.0 0.00 0.00 0.00 41 1010.8
20260503205204 71 290 17.0 25.0 0.00 0.00 0.00 41 1010.8
20260503204704 72 358 17.0 25.0 0.00 0.00 0.00 37 1010.8
20260503204204 72 358 16.0 26.0 0.00 0.00 0.00 37 1010.8
20260503203704 71 305 17.0 26.0 0.00 0.00 0.00 38 1010.8
20260503203204 69 323 17.0 23.0 0.00 0.00 0.00 44 1010.9
20260503202704 69 313 16.0 24.0 0.00 0.00 0.00 46 1011.0
20260503202204 69 288 17.0 27.0 0.00 0.00 0.00 46 1011.1
20260503201704 69 296 18.0 27.0 0.00 0.00 0.00 47 1011.2
20260503201204 69 303 18.0 27.0 0.00 0.00 0.00 45 1011.2
20260503200204 67 284 16.0 25.0 0.00 0.00 0.00 49 1011.3
20260503195204 67 307 19.0 27.0 0.00 0.00 0.00 51 1011.4
20260503194704 66 289 20.0 27.0 0.00 0.00 0.00 51 1011.4
20260503194204 66 294 18.0 26.0 0.00 0.00 0.00 53 1011.3
20260503193704 65 332 18.0 26.0 0.00 0.00 0.00 54 1011.5
20260503192704 65 304 19.0 26.0 0.00 0.00 0.00 53 1011.8
20260503191705 65 296 18.0 27.0 0.00 0.00 0.00 56 1011.8
20260503191205 64 283 19.0 27.0 0.00 0.00 0.00 57 1011.9
20260503190204 64 310 18.0 27.0 0.00 0.00 0.00 57 1012.0
20260503185704 64 283 18.0 26.0 0.00 0.00 0.00 55 1012.0
20260503185203 65 289 18.0 26.0 0.00 0.00 0.00 54 1012.0
20260503184704 65 304 17.0 26.0 0.00 0.00 0.00 53 1012.1
20260503184205 65 300 16.0 23.0 0.00 0.00 0.00 53 1012.1
20260503183704 65 301 15.0 23.0 0.00 0.00 0.00 56 1012.1
20260503183204 64 271 16.0 23.0 0.00 0.00 0.00 58 1012.1
20260503182704 64 286 16.0 22.0 0.00 0.00 0.00 55 1012.2
20260503182204 64 307 15.0 22.0 0.00 0.00 0.00 55 1012.3
20260503181204 64 304 14.0 20.0 0.00 0.00 0.00 55 1012.3
20260503180704 64 292 14.0 22.0 0.00 0.00 0.00 54 1012.3
20260503175704 64 295 15.0 23.0 0.00 0.00 0.00 54 1012.3
20260503174704 63 284 16.0 24.0 0.00 0.00 0.00 55 1012.3
20260503173704 62 286 16.0 26.0 0.00 0.00 0.00 58 1012.3
20260503173204 62 285 16.0 20.0 0.00 0.00 0.00 57 1012.3
20260503172705 63 292 14.0 19.0 0.00 0.00 0.00 55 1012.3
20260503172204 64 285 13.0 19.0 0.00 0.00 0.00 55 1012.2
20260503171704 64 300 14.0 19.0 0.00 0.00 0.00 56 1012.2
20260503171207 64 294 14.0 20.0 0.00 0.00 0.00 55 1012.1
20260503170705 63 317 15.0 20.0 0.00 0.00 0.00 57 1012.0
20260503170204 63 280 16.0 22.0 0.00 0.00 0.00 57 1012.1
20260503160204 61 291 13.0 20.0 0.00 0.00 0.00 65 1012.3
20260503150704 58 340 11.0 20.0 0.00 0.00 0.00 73 1012.2
20260503140206 58 335 13.0 20.0 0.00 0.00 0.00 72 1011.8
20260503130704 57 341 9.0 13.0 0.00 0.00 0.00 66 1011.6
20260503130205 57 337 9.0 12.0 0.00 0.00 0.00 66 1011.5
20260503120205 57 320 13.0 19.0 0.00 0.00 0.00 73 1011.4
20260503110704 57 322 13.0 20.0 0.00 0.00 0.00 73 1011.6
20260503100204 56 300 7.0 15.0 0.00 0.00 0.00 74 1012.1
20260503090204 58 324 8.0 13.0 0.00 0.00 0.00 71 1012.5
20260503081204 59 336 3.0 6.0 0.00 0.00 0.00 66 1012.9
20260503080704 59 319 2.0 6.0 0.00 0.00 0.00 65 1012.9
20260503072704 60 314 6.0 12.0 0.00 0.00 0.00 64 1013.0
20260503071706 61 294 8.0 12.0 0.00 0.00 0.00 62 1012.9
20260503071204 61 292 9.0 13.0 0.00 0.00 0.00 61 1012.9
20260503070704 62 295 10.0 14.0 0.00 0.00 0.00 60 1013.0
20260503070204 62 302 10.0 15.0 0.00 0.00 0.00 59 1013.0
20260503060205 63 284 11.0 19.0 0.00 0.00 0.00 55 1013.1
20260503054704 64 308 12.0 17.0 0.00 0.00 0.00 49 1013.1
20260503054204 64 297 12.0 17.0 0.00 0.00 0.00 47 1013.1
20260503053706 64 300 12.0 17.0 0.00 0.00 0.00 46 1013.1
20260503053204 64 282 11.0 18.0 0.00 0.00 0.00 45 1013.1
20260503052704 64 314 11.0 19.0 0.00 0.00 0.00 44 1013.1
20260503052204 65 305 12.0 19.0 0.00 0.00 0.00 44 1013.1
20260503051706 65 314 13.0 19.0 0.00 0.00 0.00 44 1013.1
20260503045705 65 319 13.0 18.0 0.00 0.00 0.00 43 1013.1
20260503045204 65 311 13.0 18.0 0.00 0.00 0.00 44 1013.1
20260503044705 65 318 14.0 20.0 0.00 0.00 0.00 44 1013.0
20260503043705 66 319 14.0 23.0 0.00 0.00 0.00 43 1012.9
20260503042704 66 309 15.0 22.0 0.00 0.00 0.00 42 1012.6
20260503042204 66 325 15.0 22.0 0.00 0.00 0.00 41 1012.6
20260503041708 67 312 14.0 20.0 0.00 0.00 0.00 39 1012.5
20260503041205 67 315 14.0 19.0 0.00 0.00 0.00 38 1012.4
20260503040206 68 336 14.0 21.0 0.00 0.00 0.00 36 1012.3
20260503035704 68 315 15.0 21.0 0.00 0.00 0.00 35 1012.2
20260503035204 68 310 15.0 22.0 0.00 0.00 0.00 35 1012.1
20260503034704 68 318 15.0 22.0 0.00 0.00 0.00 35 1012.1
20260503034206 69 323 15.0 20.0 0.00 0.00 0.00 34 1012.1
20260503033704 69 335 14.0 20.0 0.00 0.00 0.00 34 1012.0
20260503033204 69 327 15.0 21.0 0.00 0.00 0.00 35 1011.9
20260503032704 69 338 15.0 22.0 0.00 0.00 0.00 34 1011.9
20260503031204 70 327 13.0 18.0 0.00 0.00 0.00 30 1011.5
20260503030705 70 332 12.0 18.0 0.00 0.00 0.00 30 1011.5
20260503030206 70 323 11.0 16.0 0.00 0.00 0.00 30 1011.5
20260503025704 70 319 11.0 17.0 0.00 0.00 0.00 30 1011.5
20260503025204 71 334 11.0 17.0 0.00 0.00 0.00 31 1011.4
20260503024205 71 319 10.0 17.0 0.00 0.00 0.00 31 1011.3
20260503023206 73 325 11.0 16.0 0.00 0.00 0.00 28 1011.4
20260503022704 73 329 11.0 16.0 0.00 0.00 0.00 27 1011.4
20260503022206 74 358 11.0 16.0 0.00 0.00 0.00 26 1011.3
20260503021704 74 358 11.0 19.0 0.00 0.00 0.00 26 1011.4